DE2MSF Weather Reports


Display with metric or nautical units.
time (UTC)temp
F
wind
direction
speed
MPH
gust
MPH
rain 1hr
in
rain 24hr
in
rain mn
in
humidity
%
barometer
mb
20260509143012 70 333 2.0 7.0 0.00 0.00 0.00 41 1017.3
20260509141513 74 317 2.0 4.0 0.00 0.00 0.00 37 1017.4
20260509140011 68 139 1.0 6.0 0.00 0.00 0.00 40 1017.7
20260509134512 72 241 2.0 4.0 0.00 0.00 0.00 37 1017.7
20260509133011 71 207 3.0 8.0 0.00 0.00 0.00 37 1017.9
20260509131514 71 295 3.0 8.0 0.00 0.00 0.00 37 1018.1
20260509130012 71 294 2.0 4.0 0.00 0.00 0.00 39 1018.1
20260509124514 68 215 1.0 4.0 0.00 0.00 0.00 41 1018.5
20260509123012 71 270 3.0 7.0 0.00 0.00 0.00 39 1018.6
20260509120012 71 298 2.0 7.0 0.00 0.00 0.00 40 1018.8
20260509114513 65 129 2.0 7.0 0.00 0.00 0.00 49 1019.0
20260509113012 70 303 1.0 4.0 0.00 0.00 0.00 43 1019.1
20260509111514 65 255 2.0 9.0 0.00 0.00 0.00 49 1019.4
20260509110011 64 247 2.0 9.0 0.00 0.00 0.00 49 1019.4
20260509104512 67 294 3.0 7.0 0.00 0.00 0.00 48 1019.4
20260509103011 64 157 2.0 7.0 0.00 0.00 0.00 52 1019.7
20260509101511 63 145 3.0 6.0 0.00 0.00 0.00 59 1019.7
20260509100011 62 186 2.0 6.0 0.00 0.00 0.00 57 1019.6
20260509094512 64 274 1.0 4.0 0.00 0.00 0.00 53 1019.7
20260509093011 62 191 2.0 6.0 0.00 0.00 0.00 56 1019.7
20260509091511 62 53 1.0 4.0 0.00 0.00 0.00 59 1019.7
20260509090011 60 37 1.0 4.0 0.00 0.00 0.00 65 1019.8
20260509083011 58 105 1.0 4.0 0.00 0.00 0.00 69 1020.0
20260509081511 60 234 1.0 4.0 0.00 0.00 0.00 66 1020.2
20260509074511 57 46 1.0 4.0 0.00 0.00 0.00 73 1020.2
20260509073011 55 59 1.0 4.0 0.00 0.00 0.00 76 1020.0
20260509071511 54 75 1.0 4.0 0.00 0.00 0.00 77 1020.2
20260509064511 53 86 1.0 2.0 0.00 0.00 0.00 78 1020.1
20260509061513 50 78 2.0 4.0 0.00 0.00 0.00 84 1019.8
20260509054510 49 71 2.0 4.0 0.00 0.00 0.00 86 1019.8
20260509053012 48 54 1.0 4.0 0.00 0.00 0.00 87 1019.7
20260509051512 48 81 1.0 4.0 0.00 0.00 0.00 88 1019.8
20260509050011 47 72 0.0 2.0 0.00 0.00 0.00 91 1019.6
20260509044512 45 53 1.0 4.0 0.00 0.00 0.00 94 1019.7
20260509043012 45 0 0.0 0.0 0.00 0.00 0.00 95 1019.7
20260509041511 44 89 0.0 2.0 0.00 0.00 0.00 96 1019.6
20260509040012 44 83 0.0 2.0 0.00 0.00 0.00 96 1019.6
20260509034513 44 53 0.0 2.0 0.00 0.00 0.00 95 1019.9
20260509031511 44 89 0.0 2.0 0.00 0.00 0.00 95 1020.0
20260509030011 44 0 0.0 2.0 0.00 0.00 0.00 94 1020.1
20260509023011 45 0 0.0 2.0 0.00 0.00 0.00 94 1019.9
20260509021512 45 63 0.0 2.0 0.00 0.00 0.00 93 1019.9
20260509013011 46 48 0.0 2.0 0.00 0.00 0.00 92 1020.0
20260509011512 46 70 1.0 2.0 0.00 0.00 0.00 91 1020.0
20260509010011 46 0 0.0 2.0 0.00 0.00 0.00 91 1020.0
20260509004511 46 40 0.0 2.0 0.00 0.00 0.00 90 1020.1
20260509003010 47 28 0.0 2.0 0.00 0.00 0.00 90 1020.1
20260509000012 47 61 0.0 2.0 0.00 0.00 0.00 88 1020.0
20260508234511 48 0 0.0 0.0 0.00 0.00 0.00 88 1020.0
20260508233012 48 0 0.0 0.0 0.00 0.00 0.00 87 1020.0
20260508230010 49 68 0.0 2.0 0.00 0.00 0.00 85 1020.2
20260508224511 49 64 0.0 2.0 0.00 0.00 0.00 85 1020.2
20260508223011 49 90 0.0 2.0 0.00 0.00 0.00 84 1020.1
20260508221511 50 51 1.0 2.0 0.00 0.00 0.00 82 1020.1
20260508213010 51 81 1.0 2.0 0.00 0.00 0.00 79 1020.0
20260508211512 52 68 1.0 4.0 0.00 0.00 0.00 78 1020.4
20260508210010 52 51 0.0 2.0 0.00 0.00 0.00 77 1020.2
20260508204511 53 67 1.0 2.0 0.00 0.00 0.00 77 1020.0
20260508203011 53 75 1.0 4.0 0.00 0.00 0.00 75 1020.0
20260508201511 54 61 1.0 4.0 0.00 0.00 0.00 74 1020.1
20260508200009 54 82 0.0 4.0 0.00 0.00 0.00 72 1020.2
20260508193010 56 104 1.0 4.0 0.00 0.00 0.00 69 1019.8
20260508191511 56 67 1.0 4.0 0.00 0.00 0.00 67 1019.7
20260508190010 57 66 1.0 4.0 0.00 0.00 0.00 65 1019.4
20260508184512 58 89 1.0 4.0 0.00 0.00 0.00 64 1019.0
20260508183010 58 72 2.0 4.0 0.00 0.00 0.00 62 1019.0
20260508181509 59 101 2.0 6.0 0.00 0.00 0.00 61 1019.1
20260508180010 59 85 3.0 8.0 0.00 0.00 0.00 60 1018.9
20260508174509 60 81 3.0 8.0 0.00 0.00 0.00 59 1018.8
20260508173010 60 97 3.0 11.0 0.00 0.00 0.00 59 1018.5
20260508170010 61 68 3.0 8.0 0.00 0.00 0.00 57 1018.3
20260508164509 61 76 3.0 8.0 0.00 0.00 0.00 57 1018.4
20260508163009 60 97 4.0 9.0 0.00 0.00 0.00 57 1018.4
20260508160009 61 82 4.0 9.0 0.00 0.00 0.00 57 1018.6
20260508154510 62 74 2.0 6.0 0.00 0.00 0.00 55 1018.7
20260508153010 62 103 3.0 8.0 0.00 0.00 0.00 56 1018.4
20260508151511 61 73 3.0 9.0 0.00 0.00 0.00 56 1018.3
20260508150010 61 112 5.0 11.0 0.00 0.00 0.00 55 1018.4